• In Uzbekistan
  • List of Countries
  • For 7 days
  • Water Temperature
  • Weather Map
  • Weather Widgets
  • user-avatar
    Login

    Hourly Weather Podіlsk (Kotovsk)

    Today, 18 January, Saturday

    Time Temperature Precipitation Wind Pressure Humidity
    00:00 -1°C° 0 mm 1 mps 752 mmHg 92%
    01:00 -1°C° 0 mm 1 mps 752 mmHg 93%
    02:00 -1°C° 0 mm 1 mps 752 mmHg 93%
    03:00 -1°C° 0 mm 1 mps 752 mmHg 93%
    04:00 -2°C° 0 mm 1 mps 751 mmHg 94%
    05:00 -4°C° 0 mm 2 mps 751 mmHg 94%
    06:00 -4°C° 0 mm 2 mps 751 mmHg 93%
    07:00 -4°C° 0 mm 2 mps 751 mmHg 93%
    08:00 -3°C° 0 mm 2 mps 751 mmHg 92%
    09:00 -4°C° 0 mm 3 mps 751 mmHg 89%
    10:00 -4°C° 0 mm 3 mps 751 mmHg 86%
    11:00 -2°C° 0 mm 3 mps 751 mmHg 83%
    12:00 -2°C° 0 mm 3 mps 751 mmHg 80%
    13:00 -1°C° 0 mm 3 mps 750 mmHg 78%
    14:00 -1°C° 0 mm 3 mps 750 mmHg 76%
    15:00 -2°C° 0 mm 3 mps 750 mmHg 79%
    16:00 -2°C° 0 mm 2 mps 749 mmHg 83%
    17:00 -3°C° 0 mm 2 mps 749 mmHg 87%
    18:00 -3°C° 0 mm 2 mps 749 mmHg 88%
    19:00 -4°C° 0 mm 2 mps 749 mmHg 89%
    20:00 -4°C° 0 mm 2 mps 749 mmHg 91%
    21:00 -4°C° 0 mm 2 mps 749 mmHg 91%
    22:00 -4°C° 0 mm 2 mps 749 mmHg 91%
    23:00 -4°C° 0 mm 2 mps 748 mmHg 91%

    Tomorrow, 19 January, Sunday

    Time Temperature Precipitation Wind Pressure Humidity
    00:00 -4°C° 0 mm 2 mps 749 mmHg 91%
    01:00 -4°C° 0 mm 2 mps 749 mmHg 91%
    02:00 -4°C° 0 mm 2 mps 749 mmHg 91%
    03:00 -4°C° 0 mm 2 mps 749 mmHg 91%
    04:00 -2°C° 0 mm 1 mps 748 mmHg 91%
    05:00 -2°C° 0 mm 1 mps 748 mmHg 91%
    06:00 -2°C° 0 mm 1 mps 748 mmHg 91%
    07:00 -2°C° 0 mm 1 mps 749 mmHg 91%
    08:00 -2°C° 0 mm 1 mps 749 mmHg 91%
    09:00 -1°C° 0 mm 1 mps 749 mmHg 85%
    10:00 -2°C° 0 mm 2 mps 749 mmHg 79%
    11:00 +1°C° 0 mm 2 mps 750 mmHg 72%
    12:00 +1°C° 0 mm 2 mps 750 mmHg 71%
    13:00 +2°C° 0 mm 2 mps 750 mmHg 69%
    14:00 +2°C° 0 mm 2 mps 750 mmHg 67%
    15:00 +1°C° 0 mm 2 mps 750 mmHg 73%
    16:00 -1°C° 0 mm 2 mps 750 mmHg 79%
    17:00 -2°C° 0 mm 2 mps 750 mmHg 86%
    18:00 -2°C° 0 mm 2 mps 751 mmHg 87%
    19:00 -3°C° 0 mm 2 mps 751 mmHg 88%
    20:00 -3°C° 0 mm 2 mps 752 mmHg 89%
    21:00 -3°C° 0 mm 2 mps 752 mmHg 88%
    22:00 -1°C° 0 mm 1 mps 753 mmHg 87%
    23:00 -1°C° 0 mm 1 mps 753 mmHg 86%

    Day after tomorrow, 20 January, Monday

    Time Temperature Precipitation Wind Pressure Humidity
    00:00 -1°C° 0 mm 1 mps 753 mmHg 86%
    01:00 -1°C° 0 mm 1 mps 753 mmHg 86%
    02:00 -1°C° 0 mm 1 mps 754 mmHg 85%
    03:00 -1°C° 0 mm 1 mps 754 mmHg 86%
    04:00 -3°C° 0 mm 2 mps 754 mmHg 87%
    05:00 -3°C° 0 mm 2 mps 754 mmHg 87%
    06:00 -3°C° 0 mm 2 mps 754 mmHg 88%
    07:00 -3°C° 0 mm 2 mps 755 mmHg 89%
    08:00 -3°C° 0 mm 2 mps 755 mmHg 89%
    09:00 -2°C° 0 mm 2 mps 756 mmHg 83%
    10:00 -1°C° 0 mm 3 mps 756 mmHg 77%
    11:00 0°C° 0 mm 3 mps 756 mmHg 71%
    12:00 +1°C° 0 mm 3 mps 756 mmHg 68%
    13:00 +1°C° 0 mm 3 mps 756 mmHg 65%
    14:00 +1°C° 0 mm 4 mps 756 mmHg 63%
    15:00 0°C° 0 mm 4 mps 756 mmHg 67%
    16:00 -1°C° 0 mm 4 mps 756 mmHg 72%
    17:00 -2°C° 0 mm 4 mps 756 mmHg 77%
    18:00 -2°C° 0 mm 4 mps 757 mmHg 81%
    19:00 -3°C° 0 mm 4 mps 757 mmHg 85%
    20:00 -3°C° 0 mm 4 mps 757 mmHg 89%
    21:00 -3°C° 0 mm 4 mps 757 mmHg 90%
    22:00 -3°C° 0 mm 4 mps 757 mmHg 90%
    23:00 -3°C° 0 mm 4 mps 758 mmHg 91%

    21 January, Tuesday

    Time Temperature Precipitation Wind Pressure Humidity
    00:00 -3°C° 0 mm 4 mps 757 mmHg 92%
    01:00 -3°C° 0 mm 4 mps 757 mmHg 92%
    02:00 -4°C° 0 mm 4 mps 757 mmHg 93%
    03:00 -4°C° 0 mm 4 mps 757 mmHg 92%
    04:00 -4°C° 0 mm 4 mps 757 mmHg 90%
    05:00 -4°C° 0 mm 4 mps 756 mmHg 89%
    06:00 -4°C° 0 mm 4 mps 756 mmHg 89%
    07:00 -4°C° 0 mm 4 mps 756 mmHg 90%
    08:00 -4°C° 0 mm 4 mps 756 mmHg 90%
    09:00 -3°C° 0 mm 4 mps 756 mmHg 83%
    10:00 -2°C° 0 mm 5 mps 755 mmHg 77%
    11:00 -1°C° 0 mm 5 mps 755 mmHg 71%
    12:00 0°C° 0 mm 5 mps 755 mmHg 67%
    13:00 +1°C° 0 mm 5 mps 754 mmHg 64%
    14:00 +2°C° 0 mm 6 mps 753 mmHg 60%
    15:00 +1°C° 0 mm 6 mps 753 mmHg 64%
    16:00 0°C° 0 mm 5 mps 752 mmHg 69%
    17:00 -1°C° 0 mm 5 mps 752 mmHg 73%
    18:00 -1°C° 0 mm 5 mps 751 mmHg 72%
    19:00 -2°C° 0 mm 6 mps 751 mmHg 71%
    20:00 -2°C° 0 mm 6 mps 751 mmHg 70%
    21:00 -2°C° 0 mm 6 mps 750 mmHg 69%
    22:00 -3°C° 0 mm 6 mps 750 mmHg 68%
    23:00 -3°C° 0 mm 6 mps 750 mmHg 67%

    22 January, Wednesday

    Time Temperature Precipitation Wind Pressure Humidity
    00:00 -3°C° 0 mm 6 mps 749 mmHg 66%
    01:00 -3°C° 0 mm 6 mps 749 mmHg 65%
    02:00 -3°C° 0 mm 6 mps 748 mmHg 64%
    03:00 -3°C° 0 mm 6 mps 748 mmHg 63%
    04:00 -3°C° 0 mm 6 mps 748 mmHg 62%
    05:00 -3°C° 0 mm 6 mps 747 mmHg 61%
    06:00 -3°C° 0 mm 6 mps 747 mmHg 62%
    07:00 -3°C° 0 mm 6 mps 747 mmHg 63%
    08:00 -3°C° 0 mm 6 mps 747 mmHg 63%
    09:00 -2°C° 0 mm 6 mps 746 mmHg 62%
    10:00 -1°C° 0 mm 7 mps 746 mmHg 60%
    11:00 0°C° 0 mm 7 mps 746 mmHg 59%
    12:00 0°C° 0 mm 7 mps 746 mmHg 59%
    13:00 +2°C° 0 mm 7 mps 745 mmHg 60%
    14:00 +2°C° 0 mm 6 mps 745 mmHg 60%
    15:00 +2°C° 0 mm 6 mps 744 mmHg 62%
    16:00 +1°C° 0 mm 6 mps 744 mmHg 65%
    17:00 +1°C° 0 mm 5 mps 744 mmHg 67%
    18:00 0°C° 0 mm 5 mps 743 mmHg 69%
    19:00 0°C° 0 mm 5 mps 743 mmHg 72%
    20:00 -1°C° 0 mm 5 mps 743 mmHg 74%
    21:00 -2°C° 0 mm 6 mps 742 mmHg 78%
    22:00 -3°C° 0 mm 7 mps 742 mmHg 81%
    23:00 -3°C° 0 mm 7 mps 742 mmHg 84%

    23 January, Thursday

    Time Temperature Precipitation Wind Pressure Humidity
    00:00 -4°C° 0 mm 8 mps 742 mmHg 85%
    01:00 -4°C° 0 mm 9 mps 741 mmHg 86%
    02:00 -4°C° 0 mm 9 mps 741 mmHg 88%
    03:00 -4°C° 0 mm 10 mps 741 mmHg 84%
    04:00 -4°C° 0 mm 11 mps 741 mmHg 80%
    05:00 -4°C° 0 mm 11 mps 741 mmHg 76%
    06:00 -4°C° 0 mm 10 mps 742 mmHg 74%
    07:00 -5°C° 0 mm 9 mps 743 mmHg 73%
    08:00 -5°C° 0 mm 8 mps 743 mmHg 72%
    09:00 -4°C° 0 mm 9 mps 744 mmHg 70%
    10:00 -4°C° 0 mm 9 mps 745 mmHg 67%
    11:00 -4°C° 0 mm 9 mps 746 mmHg 65%
    12:00 -4°C° 0 mm 9 mps 746 mmHg 63%
    13:00 -3°C° 0 mm 9 mps 746 mmHg 62%
    14:00 -2°C° 0 mm 8 mps 747 mmHg 60%
    15:00 -4°C° 0 mm 8 mps 747 mmHg 63%
    16:00 -3°C° 0 mm 7 mps 747 mmHg 65%
    17:00 -3°C° 0 mm 7 mps 748 mmHg 68%
    18:00 -4°C° 0 mm 7 mps 748 mmHg 68%
    19:00 -4°C° 0 mm 7 mps 749 mmHg 68%
    20:00 -4°C° 0 mm 6 mps 749 mmHg 68%
    21:00 -4°C° 0 mm 6 mps 750 mmHg 70%
    22:00 -5°C° 0 mm 5 mps 750 mmHg 73%
    23:00 -5°C° 0 mm 5 mps 751 mmHg 76%
    Show more